START_TIME,STEP,MOV.,AL01,t_acc.,AL02,t_acc.,E37,t_acc.,H21,t_acc.
1979-07-20 12:00:34.080 ,0,0,1.,24.0,0.,24.0,0.,24.0,0.,24.0
1979-07-20 12:00:58.080 ,1,1,0.,24.0,0.,24.0,0.,24.0,0.,24.0
1979-07-20 12:01:22.080 ,1,0,0.,24.0,0.,24.0,0.,24.0,0.,24.0
1979-07-20 12:01:46.080 ,2,1,0.,24.0,0.,24.0,0.,24.0,0.,24.0
1979-07-20 12:02:10.070 ,2,0,0.,24.0,0.,24.0,0.,24.0,0.,24.0
1979-07-20 12:02:34.070 ,3,1,0.,24.0,0.,24.0,0.,24.0,0.,24.0
1979-07-20 12:02:58.070 ,3,0,0.,24.0,0.,24.0,0.,24.0,0.,24.0
1979-07-20 12:03:22.070 ,4,1,0.,24.0,0.,24.0,0.,24.0,0.,24.0
1979-07-20 12:03:46.070 ,4,0,0.,24.0,0.,24.0,0.,24.0,0.,24.0
1979-07-20 12:04:10.070 ,5,1,0.,24.0,0.,24.0,0.,24.0,0.,24.0
1979-07-20 12:04:34.080 ,5,0,0.,24.0,0.,24.0,0.,24.0,0.,24.0
1979-07-20 12:04:58.080 ,6,1,0.,24.0,0.,24.0,0.,24.0,0.,24.0
1979-07-20 12:05:22.080 ,6,0,0.,24.0,0.,24.0,0.,24.0,0.,24.0
1979-07-20 12:05:46.080 ,7,1,10.,24.0,2.,24.0,1.,24.0,0.,24.0
1979-07-20 12:06:10.080 ,7,0,25.,24.0,0.,24.0,0.,24.0,0.,24.0
1979-07-20 12:06:34.080 ,7,1,34.,24.0,0.,24.0,0.,24.0,0.,24.0
1979-07-20 12:06:58.080 ,7,0,21.,24.0,0.,24.0,0.,24.0,0.,24.0
1979-07-20 12:07:22.080 ,6,1,25.,24.0,0.,24.0,0.,24.0,0.,24.0
1979-07-20 12:07:46.080 ,6,0,1.,24.0,0.,24.0,0.,24.0,0.,24.0
1979-07-20 12:07:46.080 ,6,0,1.,24.0,0.,24.0,0.,24.0,0.,24.0
1979-07-20 12:08:10.070 ,5,1,0.,24.0,0.,24.0,0.,24.0,0.,24.0
1979-07-20 12:08:34.080 ,5,0,0.,24.0,0.,24.0,0.,24.0,0.,24.0
1979-07-20 12:08:58.080 ,4,1,0.,24.0,0.,24.0,0.,24.0,0.,24.0
1979-07-20 12:09:22.080 ,4,0,1.,24.0,0.,24.0,0.,24.0,0.,24.0
1979-07-20 12:09:46.080 ,3,1,0.,24.0,1.,24.0,0.,24.0,0.,24.0
1979-07-20 12:10:10.080 ,3,0,0.,24.0,0.,24.0,0.,24.0,0.,24.0
1979-07-20 12:10:34.080 ,2,1,0.,24.0,0.,24.0,1.,24.0,0.,24.0
1979-07-20 12:10:58.080 ,2,0,0.,24.0,0.,24.0,1.,24.0,0.,24.0
1979-07-20 12:11:22.080 ,1,1,0.,24.0,0.,24.0,0.,24.0,0.,24.0
1979-07-20 12:11:46.080 ,1,0,0.,24.0,0.,24.0,1.,24.0,0.,24.0
1979-07-20 12:12:10.080 ,0,1,0.,24.0,0.,24.0,0.,24.0,0.,24.0
1979-07-20 12:12:34.080 ,0,0,0.,24.0,0.,24.0,0.,24.0,0.,24.0
1979-07-20 12:12:58.080 ,0,1,1.,24.0,0.,24.0,0.,24.0,0.,24.0
1979-07-20 12:13:22.080 ,0,0,0.,24.0,1.,24.0,1.,24.0,0.,24.0
1979-07-20 12:13:46.080 ,1,1,0.,24.0,0.,24.0,0.,24.0,0.,24.0
1979-07-20 12:14:10.080 ,1,0,1.,24.0,1.,24.0,0.,24.0,0.,24.0
1979-07-20 12:14:34.080 ,2,1,0.,24.0,0.,24.0,0.,24.0,0.,24.0
1979-07-20 12:14:58.080 ,2,0,0.,24.0,0.,24.0,0.,24.0,0.,24.0
1979-07-20 12:15:22.080 ,3,1,0.,24.0,0.,24.0,0.,24.0,0.,24.0
1979-07-20 12:15:46.080 ,3,0,0.,24.0,0.,24.0,0.,24.0,0.,24.0
1979-07-20 12:16:10.080 ,4,1,0.,24.0,0.,24.0,0.,24.0,0.,24.0
1979-07-20 12:16:34.080 ,4,0,0.,24.0,0.,24.0,0.,24.0,0.,24.0
1979-07-20 12:16:58.080 ,5,1,0.,24.0,0.,24.0,1.,24.0,0.,24.0
1979-07-20 12:17:22.080 ,5,0,0.,24.0,0.,24.0,0.,24.0,0.,24.0
1979-07-20 12:17:46.080 ,6,1,0.,24.0,0.,24.0,0.,24.0,0.,24.0
1979-07-20 12:18:10.080 ,6,0,0.,24.0,0.,24.0,0.,24.0,0.,24.0
1979-07-20 12:18:34.080 ,7,0,2.,24.0,0.,24.0,0.,24.0,0.,24.0
1979-07-20 12:18:58.080 ,7,0,32.,24.0,0.,24.0,0.,24.0,0.,24.0
1979-07-20 12:19:22.080 ,5,1,19.,24.0,0.,24.0,1.,24.0,0.,24.0
1979-07-20 12:19:46.080 ,1,1,0.,24.0,0.,24.0,1.,24.0,0.,24.0
1979-07-20 12:20:10.080 ,2,1,0.,24.0,0.,24.0,0.,24.0,0.,24.0
1979-07-20 12:20:34.080 ,6,1,1.,24.0,0.,24.0,0.,24.0,0.,24.0
1979-07-20 12:20:58.070 ,5,1,9.,24.0,0.,24.0,0.,24.0,0.,24.0
1979-07-20 12:21:22.070 ,1,1,0.,24.0,1.,24.0,0.,24.0,0.,24.0
1979-07-20 12:21:46.070 ,2,1,0.,24.0,1.,24.0,0.,24.0,0.,24.0
1979-07-20 12:22:10.070 ,6,1,0.,24.0,0.,24.0,0.,24.0,0.,24.0
1979-07-20 12:22:34.070 ,5,1,20.,24.0,0.,24.0,0.,24.0,0.,24.0
1979-07-20 12:22:58.070 ,1,1,0.,24.0,0.,24.0,0.,24.0,0.,24.0
1979-07-20 12:23:22.070 ,2,1,0.,24.0,0.,24.0,0.,24.0,0.,24.0
1979-07-20 12:23:46.070 ,6,1,0.,24.0,0.,24.0,0.,24.0,0.,24.0
1979-07-20 12:24:10.070 ,5,1,19.,24.0,0.,24.0,0.,24.0,0.,24.0
1979-07-20 12:24:34.070 ,1,1,0.,24.0,1.,24.0,1.,24.0,0.,24.0
1979-07-20 12:24:58.070 ,2,1,0.,24.0,0.,24.0,0.,24.0,0.,24.0
1979-07-20 12:25:22.070 ,6,1,0.,24.0,1.,24.0,0.,24.0,0.,24.0
1979-07-20 12:25:46.070 ,5,1,11.,24.0,0.,24.0,0.,24.0,0.,24.0
1979-07-20 12:26:10.070 ,1,1,1.,24.0,0.,24.0,0.,24.0,0.,24.0
1979-07-20 12:26:34.070 ,2,1,0.,24.0,0.,24.0,0.,24.0,0.,24.0
1979-07-20 12:26:58.070 ,6,1,0.,24.0,0.,24.0,0.,24.0,0.,24.0
1979-07-20 12:27:22.070 ,5,1,11.,24.0,0.,24.0,0.,24.0,0.,24.0
1979-07-20 12:27:46.070 ,1,1,0.,24.0,0.,24.0,1.,24.0,0.,24.0
1979-07-20 12:28:10.070 ,2,1,0.,24.0,0.,24.0,0.,24.0,0.,24.0
1979-07-20 12:28:34.070 ,6,1,1.,24.0,0.,24.0,1.,24.0,0.,24.0
1979-07-20 12:28:58.070 ,5,1,17.,24.0,0.,24.0,1.,24.0,0.,24.0
1979-07-20 12:29:22.070 ,1,1,0.,24.0,0.,24.0,0.,24.0,0.,24.0
1979-07-20 12:29:46.070 ,0,0,1.,24.0,1.,24.0,0.,24.0,0.,24.0
1979-07-20 12:30:10.070 ,0,0,0.,24.0,0.,24.0,0.,24.0,0.,24.0
1979-07-20 12:30:34.070 ,5,1,15.,24.0,0.,24.0,1.,24.0,0.,24.0
1979-07-20 12:30:58.070 ,5,0,0.,24.0,0.,24.0,0.,24.0,0.,24.0
1979-07-20 12:31:22.070 ,4,1,0.,24.0,0.,24.0,0.,24.0,0.,24.0
1979-07-20 12:31:46.070 ,4,0,0.,24.0,0.,24.0,0.,24.0,0.,24.0
1979-07-20 12:32:10.070 ,3,1,0.,24.0,0.,24.0,1.,24.0,0.,24.0
1979-07-20 12:32:34.070 ,3,0,0.,24.0,0.,24.0,1.,24.0,0.,24.0
1979-07-20 12:32:58.070 ,2,1,0.,24.0,0.,24.0,0.,24.0,0.,24.0
1979-07-20 12:33:22.070 ,2,0,0.,24.0,0.,24.0,2.,24.0,0.,24.0
1979-07-20 12:33:46.070 ,1,1,1.,24.0,1.,24.0,1.,24.0,0.,24.0
1979-07-20 12:34:10.070 ,1,0,0.,24.0,0.,24.0,1.,24.0,0.,24.0
1979-07-20 12:34:34.070 ,0,1,1.,24.0,0.,24.0,0.,24.0,0.,24.0
1979-07-20 12:34:58.070 ,0,0,0.,24.0,0.,24.0,0.,24.0,0.,24.0
1979-07-20 12:35:22.070 ,0,1,0.,24.0,0.,24.0,0.,24.0,0.,24.0
1979-07-20 12:35:46.070 ,0,0,1.,24.0,1.,24.0,0.,24.0,0.,24.0
1979-07-20 12:36:10.070 ,1,1,0.,24.0,0.,24.0,0.,24.0,0.,24.0
1979-07-20 12:36:34.070 ,1,0,0.,24.0,0.,24.0,0.,24.0,0.,24.0
1979-07-20 12:36:58.070 ,2,1,1.,24.0,0.,24.0,0.,24.0,0.,24.0
1979-07-20 12:37:22.070 ,2,0,0.,24.0,0.,24.0,0.,24.0,0.,24.0
1979-07-20 12:37:46.070 ,3,1,0.,24.0,0.,24.0,0.,24.0,0.,24.0
1979-07-20 12:38:10.070 ,3,0,0.,24.0,0.,24.0,0.,24.0,0.,24.0
1979-07-20 12:38:34.070 ,4,1,1.,24.0,0.,24.0,0.,24.0,0.,24.0
1979-07-20 12:38:58.070 ,4,0,0.,24.0,0.,24.0,0.,24.0,0.,24.0
1979-07-20 12:39:22.070 ,5,1,0.,24.0,0.,24.0,0.,24.0,0.,24.0
1979-07-20 12:39:46.070 ,5,0,0.,24.0,0.,24.0,0.,24.0,0.,24.0
1979-07-20 12:40:10.070 ,6,1,1.,24.0,1.,24.0,0.,24.0,0.,24.0
1979-07-20 12:40:34.070 ,6,0,1.,24.0,0.,24.0,0.,24.0,0.,24.0
1979-07-20 12:40:58.070 ,7,1,6.,24.0,0.,24.0,0.,24.0,0.,24.0
1979-07-20 12:41:22.070 ,7,0,37.,24.0,0.,24.0,1.,24.0,0.,24.0
1979-07-20 12:41:46.070 ,7,1,25.,24.0,0.,24.0,0.,24.0,0.,24.0
1979-07-20 12:42:10.070 ,7,0,32.,24.0,0.,24.0,0.,24.0,0.,24.0
1979-07-20 12:42:34.070 ,6,1,36.,24.0,0.,24.0,1.,24.0,0.,24.0
1979-07-20 12:42:58.070 ,6,0,0.,24.0,0.,24.0,0.,24.0,0.,24.0
1979-07-20 12:43:22.070 ,5,1,0.,24.0,1.,24.0,0.,24.0,0.,24.0
1979-07-20 12:43:46.070 ,5,0,0.,24.0,0.,24.0,0.,24.0,0.,24.0
1979-07-20 12:44:10.070 ,4,1,0.,24.0,0.,24.0,0.,24.0,0.,24.0
1979-07-20 12:44:34.070 ,4,0,0.,24.0,0.,24.0,1.,24.0,0.,24.0
1979-07-20 12:44:58.070 ,3,1,1.,24.0,0.,24.0,1.,24.0,0.,24.0
1979-07-20 12:45:22.070 ,3,0,0.,24.0,0.,24.0,1.,24.0,0.,24.0
1979-07-20 12:45:46.070 ,2,1,0.,24.0,1.,24.0,0.,24.0,0.,24.0
1979-07-20 12:46:10.070 ,2,0,1.,24.0,0.,24.0,0.,24.0,0.,24.0
1979-07-20 12:46:34.070 ,1,1,0.,24.0,0.,24.0,1.,24.0,0.,24.0
1979-07-20 12:46:58.070 ,1,0,0.,24.0,0.,24.0,0.,24.0,0.,24.0
1979-07-20 12:47:22.070 ,0,1,0.,24.0,1.,24.0,0.,24.0,0.,24.0
1979-07-20 12:47:46.070 ,0,0,0.,24.0,0.,24.0,0.,24.0,0.,24.0
1979-07-20 12:48:10.070 ,0,1,1.,24.0,0.,24.0,0.,24.0,0.,24.0
1979-07-20 12:48:34.070 ,0,0,0.,24.0,0.,24.0,1.,24.0,0.,24.0
1979-07-20 12:48:58.070 ,1,1,0.,24.0,0.,24.0,0.,24.0,0.,24.0
1979-07-20 12:49:22.070 ,1,0,0.,24.0,0.,24.0,0.,24.0,0.,24.0
1979-07-20 12:49:46.070 ,2,1,0.,24.0,1.,24.0,1.,24.0,0.,24.0
1979-07-20 12:50:10.070 ,2,0,1.,24.0,0.,24.0,0.,24.0,0.,24.0
1979-07-20 12:50:34.070 ,3,1,0.,24.0,1.,24.0,0.,24.0,0.,24.0
1979-07-20 12:50:58.070 ,3,0,0.,24.0,0.,24.0,0.,24.0,0.,24.0
1979-07-20 12:51:22.070 ,4,1,0.,24.0,1.,24.0,0.,24.0,0.,24.0
1979-07-20 12:51:46.070 ,4,0,0.,24.0,0.,24.0,0.,24.0,0.,24.0
1979-07-20 12:52:10.070 ,5,1,0.,24.0,0.,24.0,0.,24.0,0.,24.0
1979-07-20 12:52:34.070 ,5,0,0.,24.0,0.,24.0,0.,24.0,0.,24.0
1979-07-20 12:52:58.070 ,6,1,0.,24.0,0.,24.0,1.,24.0,0.,24.0
1979-07-20 12:53:22.070 ,6,0,0.,24.0,0.,24.0,1.,24.0,0.,24.0
1979-07-20 12:53:46.070 ,7,1,8.,24.0,0.,24.0,0.,24.0,0.,24.0
1979-07-20 12:54:10.070 ,7,0,21.,24.0,0.,24.0,0.,24.0,0.,24.0
1979-07-20 12:54:34.070 ,7,1,32.,24.0,0.,24.0,0.,24.0,0.,24.0
1979-07-20 12:54:58.070 ,7,0,29.,24.0,0.,24.0,0.,24.0,0.,24.0
1979-07-20 12:55:22.070 ,6,1,23.,24.0,0.,24.0,0.,24.0,0.,24.0
1979-07-20 12:55:46.070 ,6,0,1.,24.0,0.,24.0,1.,24.0,0.,24.0
1979-07-20 12:56:10.070 ,5,1,0.,24.0,0.,24.0,0.,24.0,0.,24.0
1979-07-20 12:56:34.070 ,5,0,0.,24.0,0.,24.0,0.,24.0,0.,24.0
1979-07-20 12:56:58.070 ,4,1,0.,24.0,0.,24.0,0.,24.0,0.,24.0
1979-07-20 12:57:22.070 ,4,0,0.,24.0,0.,24.0,1.,24.0,0.,24.0
1979-07-20 12:57:46.070 ,3,1,0.,24.0,0.,24.0,0.,24.0,0.,24.0
1979-07-20 12:58:10.070 ,3,0,0.,24.0,0.,24.0,0.,24.0,0.,24.0
1979-07-20 12:58:34.070 ,2,1,0.,24.0,0.,24.0,0.,24.0,0.,24.0
1979-07-20 12:58:58.070 ,2,0,0.,24.0,1.,24.0,0.,24.0,0.,24.0
1979-07-20 12:59:22.070 ,1,1,0.,24.0,0.,24.0,0.,24.0,0.,24.0
1979-07-20 12:59:46.070 ,1,0,0.,24.0,1.,24.0,1.,24.0,0.,24.0
1979-07-20 13:00:10.070 ,0,1,1.,24.0,0.,24.0,0.,24.0,0.,24.0
1979-07-20 13:00:34.070 ,0,0,0.,24.0,0.,24.0,0.,24.0,0.,24.0
1979-07-20 13:00:58.070 ,0,1,0.,24.0,0.,24.0,0.,24.0,0.,24.0
1979-07-20 13:01:22.070 ,0,0,0.,24.0,0.,24.0,0.,24.0,0.,24.0
1979-07-20 13:01:46.070 ,1,1,0.,24.0,0.,24.0,0.,24.0,0.,24.0
1979-07-20 13:02:10.070 ,1,0,1.,24.0,0.,24.0,0.,24.0,0.,24.0
1979-07-20 13:02:34.070 ,2,1,1.,24.0,2.,24.0,0.,24.0,0.,24.0
1979-07-20 13:02:58.070 ,2,0,0.,24.0,0.,24.0,0.,24.0,0.,24.0
1979-07-20 13:03:22.070 ,3,1,0.,24.0,0.,24.0,1.,24.0,0.,24.0
1979-07-20 13:03:46.070 ,3,0,0.,24.0,0.,24.0,0.,24.0,0.,24.0
1979-07-20 13:04:10.070 ,4,1,0.,24.0,0.,24.0,0.,24.0,0.,24.0
1979-07-20 13:04:34.070 ,4,0,0.,24.0,0.,24.0,0.,24.0,0.,24.0
1979-07-20 13:04:58.070 ,5,1,0.,24.0,0.,24.0,1.,24.0,0.,24.0
1979-07-20 13:05:22.070 ,5,0,0.,24.0,0.,24.0,0.,24.0,0.,24.0
1979-07-20 13:05:46.070 ,6,1,1.,24.0,0.,24.0,0.,24.0,0.,24.0
1979-07-20 13:06:10.070 ,6,0,0.,24.0,0.,24.0,0.,24.0,0.,24.0
1979-07-20 13:06:34.070 ,7,0,8.,24.0,1.,24.0,0.,24.0,0.,24.0
1979-07-20 13:06:58.070 ,7,0,40.,24.0,0.,24.0,0.,24.0,0.,24.0
1979-07-20 13:07:22.070 ,5,1,19.,24.0,0.,24.0,0.,24.0,0.,24.0
1979-07-20 13:07:46.070 ,1,1,0.,24.0,0.,24.0,0.,24.0,0.,24.0
1979-07-20 13:08:10.070 ,2,1,0.,24.0,0.,24.0,0.,24.0,0.,24.0
1979-07-20 13:08:34.070 ,6,1,1.,24.0,0.,24.0,0.,24.0,0.,24.0
1979-07-20 13:08:58.070 ,5,1,14.,24.0,0.,24.0,0.,24.0,0.,24.0
1979-07-20 13:09:22.070 ,1,1,1.,24.0,0.,24.0,1.,24.0,0.,24.0
1979-07-20 13:09:46.070 ,2,1,0.,24.0,0.,24.0,1.,24.0,0.,24.0
1979-07-20 13:10:10.070 ,6,1,0.,24.0,0.,24.0,0.,24.0,0.,24.0
1979-07-20 13:10:34.070 ,5,1,16.,24.0,0.,24.0,0.,24.0,0.,24.0
1979-07-20 13:10:58.070 ,1,1,0.,24.0,0.,24.0,0.,24.0,0.,24.0
1979-07-20 13:11:22.070 ,2,1,0.,24.0,0.,24.0,0.,24.0,0.,24.0
1979-07-20 13:11:46.070 ,6,1,0.,24.0,0.,24.0,1.,24.0,0.,24.0
1979-07-20 13:12:10.070 ,5,1,15.,24.0,0.,24.0,0.,24.0,0.,24.0
1979-07-20 13:12:34.070 ,1,1,2.,24.0,0.,24.0,1.,24.0,0.,24.0
1979-07-20 13:12:58.070 ,2,1,0.,24.0,0.,24.0,0.,24.0,0.,24.0
1979-07-20 13:13:22.070 ,6,1,1.,24.0,0.,24.0,1.,24.0,0.,24.0
1979-07-20 13:13:46.070 ,5,1,12.,24.0,0.,24.0,0.,24.0,0.,24.0
1979-07-20 13:14:10.070 ,1,1,0.,24.0,0.,24.0,0.,24.0,0.,24.0
1979-07-20 13:14:34.070 ,2,1,1.,24.0,0.,24.0,1.,24.0,0.,24.0
1979-07-20 13:14:58.070 ,6,1,0.,24.0,0.,24.0,0.,24.0,0.,24.0
1979-07-20 13:15:22.070 ,5,1,16.,24.0,1.,24.0,1.,24.0,0.,24.0
1979-07-20 13:15:46.070 ,1,1,0.,24.0,0.,24.0,0.,24.0,0.,24.0
1979-07-20 13:16:10.070 ,2,1,2.,24.0,2.,24.0,0.,24.0,0.,24.0
1979-07-20 13:16:34.070 ,6,1,0.,24.0,0.,24.0,0.,24.0,0.,24.0
1979-07-20 13:16:58.070 ,5,1,11.,24.0,0.,24.0,0.,24.0,0.,24.0
1979-07-20 13:17:22.070 ,1,1,1.,24.0,1.,24.0,1.,24.0,0.,24.0
1979-07-20 13:17:46.070 ,0,0,0.,24.0,0.,24.0,0.,24.0,0.,24.0
1979-07-20 13:18:10.070 ,0,0,1.,24.0,0.,24.0,0.,24.0,0.,24.0
1979-07-20 13:18:34.070 ,5,1,16.,24.0,0.,24.0,0.,24.0,0.,24.0
1979-07-20 13:18:58.070 ,5,0,1.,24.0,0.,24.0,0.,24.0,0.,24.0
1979-07-20 13:19:22.070 ,4,1,0.,24.0,0.,24.0,0.,24.0,0.,24.0
1979-07-20 13:19:46.070 ,4,0,0.,24.0,0.,24.0,0.,24.0,0.,24.0
1979-07-20 13:20:10.070 ,3,1,0.,24.0,0.,24.0,0.,24.0,0.,24.0
1979-07-20 13:20:34.070 ,3,0,0.,24.0,0.,24.0,0.,24.0,0.,24.0
1979-07-20 13:20:58.070 ,2,1,0.,24.0,0.,24.0,0.,24.0,0.,24.0
1979-07-20 13:21:22.070 ,2,0,0.,24.0,0.,24.0,0.,24.0,0.,24.0
1979-07-20 13:21:46.070 ,1,1,1.,24.0,0.,24.0,0.,24.0,0.,24.0
1979-07-20 13:22:10.070 ,1,0,0.,24.0,0.,24.0,0.,24.0,0.,24.0
1979-07-20 13:22:34.070 ,0,1,0.,24.0,0.,24.0,0.,24.0,0.,24.0
1979-07-20 13:22:58.070 ,0,0,0.,24.0,0.,24.0,0.,24.0,0.,24.0
1979-07-20 13:23:22.070 ,0,1,0.,24.0,0.,24.0,0.,24.0,0.,24.0
1979-07-20 13:23:46.070 ,0,0,0.,24.0,0.,24.0,1.,24.0,0.,24.0
1979-07-20 13:24:10.070 ,1,1,0.,24.0,0.,24.0,0.,24.0,0.,24.0
1979-07-20 13:24:34.070 ,1,0,0.,24.0,0.,24.0,0.,24.0,0.,24.0
1979-07-20 13:24:58.070 ,2,1,1.,24.0,0.,24.0,0.,24.0,0.,24.0
1979-07-20 13:25:22.070 ,2,0,0.,24.0,0.,24.0,0.,24.0,0.,24.0
1979-07-20 13:25:46.070 ,3,1,0.,24.0,0.,24.0,0.,24.0,0.,24.0
1979-07-20 13:26:10.070 ,3,0,0.,24.0,0.,24.0,0.,24.0,0.,24.0
1979-07-20 13:26:34.070 ,4,1,1.,24.0,0.,24.0,1.,24.0,0.,24.0
1979-07-20 13:26:58.070 ,4,0,0.,24.0,0.,24.0,0.,24.0,0.,24.0
1979-07-20 13:27:22.070 ,5,1,0.,24.0,0.,24.0,0.,24.0,0.,24.0
1979-07-20 13:27:46.070 ,5,0,0.,24.0,1.,24.0,0.,24.0,0.,24.0
1979-07-20 13:28:10.070 ,6,1,0.,24.0,0.,24.0,0.,24.0,0.,24.0
1979-07-20 13:28:34.070 ,6,0,0.,24.0,0.,24.0,0.,24.0,0.,24.0
1979-07-20 13:28:58.070 ,7,1,7.,24.0,0.,24.0,0.,24.0,0.,24.0
1979-07-20 13:29:22.070 ,7,0,26.,24.0,0.,24.0,0.,24.0,0.,24.0
1979-07-20 13:29:46.070 ,7,1,32.,24.0,0.,24.0,0.,24.0,0.,24.0
1979-07-20 13:30:10.070 ,7,0,33.,24.0,0.,24.0,0.,24.0,0.,24.0
1979-07-20 13:30:34.070 ,6,1,23.,24.0,0.,24.0,0.,24.0,0.,24.0
1979-07-20 13:30:58.070 ,6,0,0.,24.0,0.,24.0,0.,24.0,0.,24.0
1979-07-20 13:31:22.070 ,5,1,0.,24.0,0.,24.0,0.,24.0,0.,24.0
1979-07-20 13:31:46.070 ,5,0,0.,24.0,0.,24.0,0.,24.0,0.,24.0
1979-07-20 13:32:10.070 ,4,1,0.,24.0,0.,24.0,0.,24.0,0.,24.0
1979-07-20 13:32:34.070 ,4,0,0.,24.0,0.,24.0,0.,24.0,0.,24.0
1979-07-20 13:32:58.070 ,3,1,0.,24.0,0.,24.0,0.,24.0,0.,24.0
1979-07-20 13:33:22.070 ,3,0,0.,24.0,0.,24.0,0.,24.0,0.,24.0
1979-07-20 13:33:46.070 ,2,1,0.,24.0,1.,24.0,0.,24.0,0.,24.0
1979-07-20 13:34:10.070 ,2,0,1.,24.0,0.,24.0,0.,24.0,0.,24.0
1979-07-20 13:34:34.070 ,1,1,0.,24.0,0.,24.0,0.,24.0,0.,24.0
1979-07-20 13:34:58.070 ,1,0,0.,24.0,0.,24.0,0.,24.0,0.,24.0
1979-07-20 13:35:22.070 ,0,1,0.,24.0,0.,24.0,1.,24.0,0.,24.0
1979-07-20 13:35:46.070 ,0,0,1.,24.0,0.,24.0,1.,24.0,0.,24.0
1979-07-20 13:36:10.070 ,0,0,0.,24.0,0.,24.0,0.,24.0,0.,24.0
1979-07-20 13:36:34.070 ,0,0,0.,24.0,0.,24.0,0.,24.0,0.,24.0
1979-07-20 13:36:58.070 ,1,1,0.,24.0,0.,24.0,0.,24.0,0.,24.0
1979-07-20 13:37:22.070 ,1,0,0.,24.0,0.,24.0,0.,24.0,0.,24.0
1979-07-20 13:37:46.070 ,2,1,0.,24.0,1.,24.0,0.,24.0,0.,24.0
1979-07-20 13:38:10.070 ,2,0,0.,24.0,0.,24.0,0.,24.0,0.,24.0
1979-07-20 13:38:34.070 ,3,1,1.,24.0,0.,24.0,0.,24.0,0.,24.0
1979-07-20 13:38:58.070 ,3,0,0.,24.0,0.,24.0,1.,24.0,0.,24.0
1979-07-20 13:39:22.070 ,4,1,0.,24.0,0.,24.0,0.,24.0,0.,24.0
1979-07-20 13:39:46.070 ,4,0,1.,24.0,0.,24.0,1.,24.0,0.,24.0
1979-07-20 13:40:10.070 ,5,1,0.,24.0,0.,24.0,0.,24.0,0.,24.0
1979-07-20 13:40:34.070 ,5,0,0.,24.0,0.,24.0,0.,24.0,0.,24.0
1979-07-20 13:40:58.070 ,6,1,1.,24.0,0.,24.0,0.,24.0,0.,24.0
1979-07-20 13:41:22.070 ,6,0,1.,24.0,0.,24.0,0.,24.0,0.,24.0
1979-07-20 13:41:46.070 ,7,1,7.,24.0,0.,24.0,0.,24.0,0.,24.0
1979-07-20 13:42:10.070 ,7,0,19.,24.0,0.,24.0,0.,24.0,0.,24.0
1979-07-20 13:42:34.070 ,7,1,30.,24.0,0.,24.0,0.,24.0,0.,24.0
1979-07-20 13:42:58.070 ,7,0,28.,24.0,1.,24.0,0.,24.0,0.,24.0
1979-07-20 13:43:22.070 ,6,1,23.,24.0,0.,24.0,0.,24.0,0.,24.0
1979-07-20 13:43:46.070 ,6,0,0.,24.0,0.,24.0,0.,24.0,0.,24.0
1979-07-20 13:44:10.070 ,5,1,0.,24.0,0.,24.0,0.,24.0,0.,24.0
1979-07-20 13:44:34.070 ,5,0,0.,24.0,0.,24.0,0.,24.0,0.,24.0
1979-07-20 13:44:58.070 ,4,1,0.,24.0,0.,24.0,0.,24.0,0.,24.0
1979-07-20 13:45:22.070 ,4,0,0.,24.0,0.,24.0,0.,24.0,0.,24.0
1979-07-20 13:45:46.070 ,3,1,0.,24.0,0.,24.0,0.,24.0,0.,24.0
1979-07-20 13:46:10.070 ,3,0,0.,24.0,0.,24.0,0.,24.0,0.,24.0
1979-07-20 13:46:34.070 ,2,1,2.,24.0,0.,24.0,0.,24.0,0.,24.0
1979-07-20 13:46:58.070 ,2,0,0.,24.0,1.,24.0,0.,24.0,0.,24.0
1979-07-20 13:47:22.070 ,1,1,0.,24.0,0.,24.0,0.,24.0,0.,24.0
1979-07-20 13:47:46.070 ,1,0,0.,24.0,0.,24.0,1.,24.0,0.,24.0
1979-07-20 13:48:10.070 ,0,1,1.,24.0,0.,24.0,0.,24.0,0.,24.0
1979-07-20 13:48:34.070 ,0,0,0.,24.0,0.,24.0,0.,24.0,0.,24.0
1979-07-20 13:48:58.070 ,0,1,0.,24.0,0.,24.0,0.,24.0,0.,24.0
1979-07-20 13:49:22.070 ,0,0,0.,24.0,0.,24.0,0.,24.0,0.,24.0
1979-07-20 13:49:46.070 ,1,1,0.,24.0,0.,24.0,0.,24.0,0.,24.0
1979-07-20 13:50:10.070 ,1,0,0.,24.0,0.,24.0,0.,24.0,0.,24.0
1979-07-20 13:50:34.070 ,2,1,1.,24.0,0.,24.0,1.,24.0,0.,24.0
1979-07-20 13:50:58.070 ,2,0,0.,24.0,0.,24.0,0.,24.0,0.,24.0
1979-07-20 13:51:22.070 ,3,1,1.,24.0,0.,24.0,0.,24.0,0.,24.0
1979-07-20 13:51:46.070 ,3,0,0.,24.0,0.,24.0,1.,24.0,0.,24.0
1979-07-20 13:52:10.070 ,4,1,0.,24.0,0.,24.0,0.,24.0,0.,24.0
1979-07-20 13:52:34.070 ,4,0,0.,24.0,0.,24.0,0.,24.0,0.,24.0
1979-07-20 13:52:58.070 ,5,1,0.,24.0,0.,24.0,0.,24.0,0.,24.0
1979-07-20 13:53:22.070 ,5,0,0.,24.0,0.,24.0,0.,24.0,0.,24.0
1979-07-20 13:53:46.070 ,6,1,0.,24.0,0.,24.0,0.,24.0,0.,24.0
1979-07-20 13:54:10.070 ,6,0,0.,24.0,0.,24.0,0.,24.0,0.,24.0
1979-07-20 13:54:34.070 ,7,0,6.,24.0,0.,24.0,0.,24.0,0.,24.0
1979-07-20 13:54:58.070 ,7,0,26.,24.0,0.,24.0,0.,24.0,0.,24.0
1979-07-20 13:55:22.070 ,5,1,14.,24.0,0.,24.0,0.,24.0,0.,24.0
1979-07-20 13:55:46.070 ,1,1,0.,24.0,0.,24.0,0.,24.0,0.,24.0
1979-07-20 13:56:10.070 ,2,1,0.,24.0,1.,24.0,0.,24.0,0.,24.0
1979-07-20 13:56:34.070 ,6,1,0.,24.0,0.,24.0,0.,24.0,0.,24.0
1979-07-20 13:56:58.070 ,5,1,14.,24.0,0.,24.0,0.,24.0,0.,24.0
1979-07-20 13:57:22.070 ,1,1,0.,24.0,0.,24.0,0.,24.0,0.,24.0
1979-07-20 13:57:46.070 ,2,1,0.,24.0,0.,24.0,1.,24.0,0.,24.0
1979-07-20 13:58:10.070 ,6,1,1.,24.0,0.,24.0,0.,24.0,0.,24.0
1979-07-20 13:58:34.070 ,5,1,11.,24.0,0.,24.0,0.,24.0,0.,24.0
1979-07-20 13:58:58.070 ,1,1,1.,24.0,0.,24.0,0.,24.0,0.,24.0
1979-07-20 13:59:22.070 ,2,1,1.,24.0,0.,24.0,0.,24.0,0.,24.0
1979-07-20 13:59:46.070 ,6,1,0.,24.0,0.,24.0,0.,24.0,0.,24.0
1979-07-20 14:00:10.070 ,5,1,8.,24.0,0.,24.0,0.,24.0,0.,24.0
1979-07-20 14:00:34.070 ,1,1,0.,24.0,0.,24.0,0.,24.0,0.,24.0
1979-07-20 14:00:58.070 ,2,1,1.,24.0,0.,24.0,0.,24.0,0.,24.0
1979-07-20 14:01:22.070 ,6,1,0.,24.0,0.,24.0,0.,24.0,0.,24.0
1979-07-20 14:01:46.070 ,5,1,17.,24.0,1.,24.0,0.,24.0,0.,24.0
1979-07-20 14:02:10.070 ,1,1,0.,24.0,0.,24.0,1.,24.0,0.,24.0
1979-07-20 14:02:34.070 ,2,1,0.,24.0,1.,24.0,1.,24.0,0.,24.0
1979-07-20 14:02:58.070 ,6,1,0.,24.0,0.,24.0,0.,24.0,0.,24.0
1979-07-20 14:03:22.070 ,5,1,15.,24.0,0.,24.0,0.,24.0,0.,24.0
1979-07-20 14:03:46.070 ,1,1,1.,24.0,0.,24.0,0.,24.0,0.,24.0
1979-07-20 14:04:10.070 ,2,1,0.,24.0,0.,24.0,0.,24.0,0.,24.0
1979-07-20 14:04:34.070 ,6,1,0.,24.0,0.,24.0,0.,24.0,0.,24.0
1979-07-20 14:04:58.070 ,5,1,14.,24.0,0.,24.0,0.,24.0,0.,24.0
1979-07-20 14:05:22.070 ,1,1,1.,24.0,0.,24.0,0.,24.0,0.,24.0
1979-07-20 14:05:46.070 ,0,0,1.,24.0,0.,24.0,0.,24.0,0.,24.0
1979-07-20 14:06:10.070 ,0,0,0.,24.0,0.,24.0,0.,24.0,0.,24.0
1979-07-20 14:06:34.070 ,5,1,22.,24.0,0.,24.0,0.,24.0,0.,24.0
1979-07-20 14:06:58.070 ,5,0,0.,24.0,0.,24.0,0.,24.0,0.,24.0
1979-07-20 14:07:22.070 ,4,1,0.,24.0,0.,24.0,0.,24.0,0.,24.0
1979-07-20 14:07:46.070 ,4,0,0.,24.0,0.,24.0,0.,24.0,0.,24.0
1979-07-20 14:08:10.070 ,3,1,1.,24.0,1.,24.0,0.,24.0,0.,24.0
1979-07-20 14:08:34.070 ,3,0,1.,24.0,0.,24.0,0.,24.0,0.,24.0
1979-07-20 14:08:58.070 ,2,1,0.,24.0,1.,24.0,1.,24.0,0.,24.0
1979-07-20 14:09:22.070 ,2,0,0.,24.0,0.,24.0,0.,24.0,0.,24.0
1979-07-20 14:09:46.070 ,1,1,1.,24.0,2.,24.0,0.,24.0,0.,24.0
1979-07-20 14:10:10.070 ,1,0,0.,24.0,0.,24.0,0.,24.0,0.,24.0
1979-07-20 14:10:34.070 ,0,1,0.,24.0,0.,24.0,0.,24.0,0.,24.0
1979-07-20 14:10:58.070 ,0,0,1.,24.0,0.,24.0,0.,24.0,0.,24.0
1979-07-20 14:11:22.070 ,0,1,0.,24.0,0.,24.0,0.,24.0,0.,24.0
1979-07-20 14:11:46.070 ,0,0,0.,24.0,0.,24.0,0.,24.0,0.,24.0
1979-07-20 14:12:10.070 ,1,1,0.,24.0,0.,24.0,0.,24.0,0.,24.0
1979-07-20 14:12:34.070 ,1,0,0.,24.0,0.,24.0,1.,24.0,0.,24.0
1979-07-20 14:12:58.070 ,2,1,0.,24.0,0.,24.0,0.,24.0,0.,24.0
1979-07-20 14:13:22.070 ,2,0,0.,24.0,0.,24.0,0.,24.0,0.,24.0
1979-07-20 14:13:46.070 ,3,1,0.,24.0,1.,24.0,0.,24.0,0.,24.0
1979-07-20 14:14:10.070 ,3,0,0.,24.0,0.,24.0,2.,24.0,0.,24.0
1979-07-20 14:14:34.070 ,4,1,0.,24.0,0.,24.0,0.,24.0,0.,24.0
1979-07-20 14:14:58.070 ,4,0,0.,24.0,0.,24.0,0.,24.0,0.,24.0
1979-07-20 14:15:22.070 ,5,1,0.,24.0,0.,24.0,0.,24.0,0.,24.0
1979-07-20 14:15:46.070 ,5,0,0.,24.0,0.,24.0,0.,24.0,0.,24.0
1979-07-20 14:16:10.070 ,6,1,1.,24.0,0.,24.0,1.,24.0,0.,24.0
1979-07-20 14:16:34.070 ,6,0,1.,24.0,0.,24.0,0.,24.0,0.,24.0
1979-07-20 14:16:58.070 ,7,1,5.,24.0,0.,24.0,1.,24.0,0.,24.0
1979-07-20 14:17:22.070 ,7,0,29.,24.0,0.,24.0,0.,24.0,0.,24.0
1979-07-20 14:17:46.070 ,7,1,26.,24.0,0.,24.0,1.,24.0,0.,24.0
1979-07-20 14:18:10.070 ,7,0,32.,24.0,0.,24.0,2.,24.0,0.,24.0
1979-07-20 14:18:34.070 ,6,1,29.,24.0,1.,24.0,0.,24.0,0.,24.0
1979-07-20 14:18:58.070 ,6,0,0.,24.0,0.,24.0,0.,24.0,0.,24.0
1979-07-20 14:19:22.070 ,5,1,0.,24.0,0.,24.0,0.,24.0,0.,24.0
1979-07-20 14:19:46.070 ,5,0,0.,24.0,0.,24.0,0.,24.0,0.,24.0
1979-07-20 14:20:10.070 ,4,1,0.,24.0,0.,24.0,0.,24.0,0.,24.0
1979-07-20 14:20:34.070 ,4,0,0.,24.0,0.,24.0,0.,24.0,0.,24.0
1979-07-20 14:20:58.070 ,3,1,0.,24.0,0.,24.0,0.,24.0,0.,24.0
1979-07-20 14:21:22.070 ,3,0,0.,24.0,1.,24.0,1.,24.0,0.,24.0
1979-07-20 14:21:46.070 ,2,1,0.,24.0,2.,24.0,0.,24.0,0.,24.0
1979-07-20 14:22:10.070 ,2,0,0.,24.0,0.,24.0,0.,24.0,0.,24.0
1979-07-20 14:22:34.070 ,1,1,0.,24.0,0.,24.0,0.,24.0,0.,24.0
1979-07-20 14:22:58.070 ,1,0,0.,24.0,0.,24.0,0.,24.0,0.,24.0
1979-07-20 14:23:22.070 ,0,1,0.,24.0,0.,24.0,0.,24.0,0.,24.0
1979-07-20 14:23:46.070 ,0,0,1.,24.0,0.,24.0,0.,24.0,0.,24.0
1979-07-20 14:24:10.070 ,0,1,0.,24.0,0.,24.0,0.,24.0,0.,24.0
1979-07-20 14:24:34.070 ,0,0,0.,24.0,0.,24.0,0.,24.0,0.,24.0
1979-07-20 14:24:58.070 ,1,1,1.,24.0,0.,24.0,0.,24.0,0.,24.0
1979-07-20 14:25:22.070 ,1,0,0.,24.0,0.,24.0,0.,24.0,0.,24.0
1979-07-20 14:25:46.070 ,2,1,0.,24.0,1.,24.0,0.,24.0,0.,24.0
1979-07-20 14:26:10.070 ,2,0,0.,24.0,0.,24.0,0.,24.0,0.,24.0
1979-07-20 14:26:34.070 ,3,1,0.,24.0,0.,24.0,0.,24.0,0.,24.0
1979-07-20 14:26:58.070 ,3,0,0.,24.0,0.,24.0,1.,24.0,0.,24.0
1979-07-20 14:27:22.070 ,4,1,1.,24.0,1.,24.0,0.,24.0,0.,24.0
1979-07-20 14:27:46.070 ,4,0,0.,24.0,0.,24.0,0.,24.0,0.,24.0
1979-07-20 14:28:10.070 ,5,1,1.,24.0,0.,24.0,0.,24.0,0.,24.0
1979-07-20 14:28:34.070 ,5,0,0.,24.0,0.,24.0,0.,24.0,0.,24.0
1979-07-20 14:28:58.070 ,6,1,0.,24.0,0.,24.0,0.,24.0,0.,24.0
1979-07-20 14:29:22.070 ,6,0,1.,24.0,0.,24.0,0.,24.0,0.,24.0
1979-07-20 14:29:46.070 ,7,1,7.,24.0,0.,24.0,0.,24.0,0.,24.0
1979-07-20 14:30:10.070 ,7,0,33.,24.0,0.,24.0,0.,24.0,0.,24.0
1979-07-20 14:30:34.070 ,7,1,34.,24.0,0.,24.0,1.,24.0,0.,24.0
1979-07-20 14:30:58.070 ,7,0,28.,24.0,1.,24.0,0.,24.0,0.,24.0
1979-07-20 14:31:22.070 ,6,1,19.,24.0,0.,24.0,0.,24.0,0.,24.0
1979-07-20 14:31:46.070 ,6,0,0.,24.0,0.,24.0,0.,24.0,0.,24.0
1979-07-20 14:32:10.070 ,5,1,0.,24.0,0.,24.0,0.,24.0,0.,24.0
1979-07-20 14:32:34.070 ,5,0,1.,24.0,0.,24.0,0.,24.0,0.,24.0
1979-07-20 14:32:58.070 ,4,1,0.,24.0,0.,24.0,0.,24.0,0.,24.0
1979-07-20 14:33:22.070 ,4,0,1.,24.0,0.,24.0,0.,24.0,0.,24.0
1979-07-20 14:33:46.070 ,3,1,0.,24.0,1.,24.0,0.,24.0,0.,24.0